Regional Weather Roundup
Issued by NWS

Home | Current Version | Previous Version | Graphics & Text | Print | Product List | Glossary On
Versions: 1 2 3 4 5 6 7 8 9 10 11 12 13 14 15 16 17 18 19 20 21 22 23 24 25 26 27 28 29 30 31 32 33 34 35 36 37 38 39 40 41 42 43 44 45 46 47 48 49 50
000
ASUS43 KLOT 291908
RWRIL

ILLINOIS REGIONAL WEATHER ROUNDUP
NATIONAL WEATHER SERVICE CHICAGO/ROMEOVILLE IL
200 PM CDT SUN MAY 29 2016

NOTE: "FAIR" INDICATES FEW OR NO CLOUDS BELOW 12,000 FEET WITH NO
SIGNIFICANT WEATHER AND/OR OBSTRUCTIONS TO VISIBILITY.

* THESE STATIONS ARE NOT UNDER NWS QUALITY CONTROL. THEY ALSO MAY NOT
  REPORT WEATHER SUCH AS PRECIPITATION OR FOG.

ILZ001-002-007-009-015-016-024-292000-
NORTHWEST ILLINOIS

CITY           SKY/WX    TMP DP  RH WIND       PRES   REMARKS
MOLINE         MOSUNNY   80  58  46 W13G21    30.04S HX  80
STERLING*      MOSUNNY   79  61  53 W13G24    30.04S HX  80
SAVANNA*       PTSUNNY   77  59  52 W12       30.03S
$$

ILZ003-004-008-010-011-017-018-292000-
NORTH CENTRAL ILLINOIS

CITY           SKY/WX    TMP DP  RH WIND       PRES   REMARKS
ROCKFORD       PTSUNNY   78  58  49 W14G23    30.03S
FREEPORT*      PTSUNNY   75  59  58 W14G21    30.04S
ROCHELLE*      PTSUNNY   77  61  58 W15G21    30.03F
DE KALB*       MOSUNNY   76  62  60 W14G23    30.04S
$$

ILZ005-006-012>014-019>023-292000-
NORTHEAST ILLINOIS

CITY           SKY/WX    TMP DP  RH WIND       PRES   REMARKS
CHICAGO-OHARE  MOSUNNY   76  60  57 SW17      30.01S
CHICAGO-MIDWAY MOSUNNY   79  58  48 W15       30.01S HX  80
AURORA         MOSUNNY   77  63  61 W14       30.03F
LANSING*       MOSUNNY   79  58  48 W14       30.02S HX  80
JOLIET*        PTSUNNY   80  59  49 W12G17    30.03F HX  81
WAUKEGAN       MOSUNNY   77  61  57 SW8G22    29.98F
DUPAGE AIRPORT PTSUNNY   76  59  55 SW15      30.02F
KANKAKEE*      MOSUNNY   81  58  44 W14       30.04S HX  81
WHEELING       PTSUNNY   77  60  55 W10G22    30.01F
MORRIS*        MOSUNNY   80  58  47 W15G21    30.02F HX  80
ROMEOVILLE*    MOSUNNY   79  56  45 W14G22    30.03F HX  80
NORTHERLY ISL    N/A     76  56  49 W15         N/A
NORTHERLY ISL    N/A     76  56  49 W15         N/A
$$

LMZ740>746-292000-
SOUTHERN LAKE MICHIGAN

STATION/POSITION SKY/WX   TEMP    WIND        PRES    VSBY  WAVE
                          AIR SEA DIR/SP/G                  HT/PER
                          (F)     (DEG/KT/KT) (MB)    (MI)  (FT/S)
SOUTHERN BUOY              57 51  230/ 12/ 12 1015.2R         1/ 3
WILMETTE HARBOR            65 54  280/ 10/ 14   N/A           1/ 2
HARRISON CRIB              75     260/ 19/ 21   N/A
BURNHAM HARBOR             76     200/ 13/ 15   N/A
CALUMET HARBOR             79     230/  8/ 19 1015.7R
BURNS HARBOR               73     250/ 18/ 24 1016.6R
MICHIGAN CITY              68     240/ 18/ 19   N/A
MICHIGAN CITY 6N           65 57  280/ 10/ 14   N/A           1/ 3
ST. JOSEPH                 66 62  260/  8/ 10   N/A           1
$$

ILZ025>027-034>036-040-047-049-050-058-095>099-292000-
WEST-CENTRAL ILLINOIS

CITY           SKY/WX    TMP DP  RH WIND       PRES   REMARKS
QUINCY         MOSUNNY   81  59  47 NW8       30.09S HX  81
GALESBURG*     SUNNY     79  60  51 W14       30.06F HX  80
MACOMB*        SUNNY     80  58  46 W9        30.10S HX  80
JACKSONVILLE*  MOSUNNY   82  58  43 NW12      30.08F HX  82
PITTSFIELD*    MOSUNNY   82  63  53 W12       30.10F HX  83
$$

ILZ028>032-037-038-041>044-048-051>054-059>061-292000-
CENTRAL ILLINOIS

CITY           SKY/WX    TMP DP  RH WIND       PRES   REMARKS
PONTIAC        MOSUNNY   83  58  42 W13G25    30.05F HX  82
BLOOMINGTON    MOSUNNY   80  62  54 NW15      30.08F HX  81
DECATUR        SUNNY     84  57  39 W14G22    30.06F HX  83
PEORIA         MOSUNNY   82  55  39 NW8G18    30.06F HX  81
LACON*         MOSUNNY   80  54  41 W8G17     30.04S HX  80
LINCOLN*       SUNNY     82  60  48 W7        30.07S HX  82
SPRINGFIELD    MOSUNNY   85  56  37 NW15      30.07F HX  84
TAYLORVILLE    MOSUNNY   83  57  42 W13       30.08F HX  82
$$

ILZ033-039-045-046-055>057-062-063-292000-
EAST-CENTRAL ILLINOIS

CITY           SKY/WX    TMP DP  RH WIND       PRES   REMARKS
CHAMPAIGN      MOSUNNY   86  55  34 W15G24    30.06F HX  84
RANTOUL*       MOSUNNY   84  57  39 W15G22    30.06F HX  83
MATTOON        MOSUNNY   82  56  40 SW9       30.06F HX  82
PARIS*         MOSUNNY   84  60  43 W7        30.07F HX  84
$$

ILZ079-100>102-292000-
SOUTHWEST ILLINOIS

CITY           SKY/WX    TMP DP  RH WIND       PRES   REMARKS
ALTON          MOSUNNY   84  59  42 W9        30.10F HX  84
CAHOKIA*       PTSUNNY   84  55  36 W3        30.09F HX  83
SPARTA*        SUNNY     82  60  47 NW6       30.10F HX  82
$$

ILZ064>066-069>071-074>076-080>082-084>086-088>090-092>094-292000-
SOUTH-CENTRAL ILLINOIS

CITY           SKY/WX    TMP DP  RH WIND       PRES   REMARKS
CARBONDALE     MOSUNNY   83  61  47 NW8       30.09S HX  83
CAIRO*         SUNNY     83  70  63 W7        30.09F HX  87
EFFINGHAM*     MOSUNNY   83  63  50 W8        30.09F HX  84
MARION         PTSUNNY   84  68  58 NW9       30.09F HX  87
MT. VERNON     MOSUNNY   84  63  48 W6        30.09S HX  85
CENTRALIA*     MOSUNNY   84  63  48 N9        30.08S HX  84
SALEM*         SUNNY     83  60  45 NW8       30.09F HX  84
METROPOLIS*    SUNNY     85  72  65 SW6       30.09S HX  91
$$

ILZ067-068-072-073-078-083-087-091-292000-
SOUTHEAST ILLINOIS

CITY           SKY/WX    TMP DP  RH WIND       PRES   REMARKS
LAWRENCEVILLE  MOSUNNY   84  67  56 W10       30.06F HX  86
FLORA*         MOSUNNY   85  64  49 NW9       30.08F HX  86
FAIRFIELD*     MOSUNNY   83  65  53 NW6       30.07S HX  85
HARRISBURG*    MOSUNNY   83  69  62 NW7       30.08S HX  87
ROBINSON*      MOSUNNY   84  65  52 W10       30.07F HX  86
CARMI*         MOSUNNY   84  70  63 W8        30.07S HX  88
$$

ABBREVIATIONS USED IN REMARKS
   TC - TEMPERATURE IN CELSIUS
  WCI - WIND CHILL INDEX
   HX - HEAT INDEX
  VSB - VISIBILITY
$$





USA.gov is the U.S. government's official web portal to all federal, state and local government web resources and services.